Time,TemperatureF,DewpointF,PressureIn,WindDirection,WindDirectionDegrees,WindSpeedMPH,WindSpeedGustMPH,Humidity,HourlyPrecipIn,Conditions,Clouds,dailyrainin,SoftwareType,DateUTC
2013-01-17 00:03:00,76.5,51.0,27.05,East,80,7.6,8.7,32,0.00,,---,0.00,VWS V14.01,2013-01-17 06:03:00,
2013-01-17 00:08:00,76.5,51.0,27.05,SE,136,8.7,8.7,32,0.00,,---,0.00,VWS V14.01,2013-01-17 06:08:00,
2013-01-17 00:13:00,76.5,51.0,27.05,East,83,8.3,10.5,32,0.00,,---,0.00,VWS V14.01,2013-01-17 06:13:00,
2013-01-17 00:18:00,76.5,51.0,27.05,SE,126,8.1,12.3,32,0.00,,---,0.00,VWS V14.01,2013-01-17 06:18:00,
2013-01-17 00:23:00,76.5,51.0,27.02,ESE,123,5.8,8.3,32,0.00,,---,0.00,VWS V14.01,2013-01-17 06:23:00,
2013-01-17 00:28:00,76.5,51.0,27.02,SE,135,8.7,8.7,32,0.00,,---,0.00,VWS V14.01,2013-01-17 06:28:00,
2013-01-17 00:33:00,76.5,51.0,27.02,ESE,113,7.2,7.6,32,0.00,,---,0.00,VWS V14.01,2013-01-17 06:33:00,
2013-01-17 00:38:00,76.5,51.0,27.02,SE,125,6.3,8.1,32,0.00,,---,0.00,VWS V14.01,2013-01-17 06:38:00,
2013-01-17 00:43:00,76.5,51.0,27.02,SE,134,12.3,15.0,32,0.00,,---,0.00,VWS V14.01,2013-01-17 06:43:00,
2013-01-17 00:48:00,76.5,51.0,27.02,East,82,6.3,8.3,32,0.00,,---,0.00,VWS V14.01,2013-01-17 06:48:00,
2013-01-17 00:53:00,76.5,51.0,27.02,ESE,123,11.0,18.3,32,0.00,,---,0.00,VWS V14.01,2013-01-17 06:53:00,
2013-01-17 00:58:00,76.5,51.0,27.02,SE,139,6.3,9.6,32,0.00,,---,0.00,VWS V14.01,2013-01-17 06:58:00,
2013-01-17 01:03:00,76.5,51.0,27.02,ESE,113,8.7,11.0,32,0.00,,---,0.00,VWS V14.01,2013-01-17 07:03:00,
2013-01-17 01:08:00,76.5,51.0,27.02,ESE,118,6.3,6.3,32,0.00,,---,0.00,VWS V14.01,2013-01-17 07:08:00,
2013-01-17 01:13:00,76.5,51.0,27.02,ESE,106,14.5,14.5,32,0.00,,---,0.00,VWS V14.01,2013-01-17 07:13:00,
2013-01-17 01:18:00,76.5,51.0,27.02,SSW,203,7.6,7.6,32,0.00,,---,0.00,VWS V14.01,2013-01-17 07:18:00,
2013-01-17 01:23:00,76.5,51.0,26.99,ESE,106,5.8,6.7,32,0.00,,---,0.00,VWS V14.01,2013-01-17 07:23:00,
2013-01-17 01:28:00,76.5,51.0,26.99,East,87,3.6,5.4,32,0.00,,---,0.00,VWS V14.01,2013-01-17 07:28:00,
2013-01-17 01:33:00,76.5,51.0,26.99,ESE,114,5.8,8.7,32,0.00,,---,0.00,VWS V14.01,2013-01-17 07:33:00,
2013-01-17 01:38:00,76.5,51.0,26.99,ESE,116,5.4,5.4,32,0.00,,---,0.00,VWS V14.01,2013-01-17 07:38:00,
2013-01-17 01:43:00,76.5,51.0,26.99,SSE,158,10.1,11.0,32,0.00,,---,0.00,VWS V14.01,2013-01-17 07:43:00,
2013-01-17 01:48:00,76.5,51.0,26.99,SSE,158,8.3,8.3,32,0.00,,---,0.00,VWS V14.01,2013-01-17 07:48:00,
2013-01-17 01:53:00,76.5,51.0,26.99,ESE,110,3.6,11.0,32,0.00,,---,0.00,VWS V14.01,2013-01-17 07:53:00,
2013-01-17 01:58:00,76.5,51.0,26.99,South,175,8.1,8.1,32,0.00,,---,0.00,VWS V14.01,2013-01-17 07:58:00,
2013-01-17 02:03:00,76.5,51.0,26.99,ESE,103,8.7,8.7,32,0.00,,---,0.00,VWS V14.01,2013-01-17 08:03:00,
2013-01-17 02:08:00,76.5,51.0,26.99,SE,132,4.9,5.8,32,0.00,,---,0.00,VWS V14.01,2013-01-17 08:08:00,
2013-01-17 02:13:00,76.5,51.0,26.99,SSE,149,5.8,10.5,32,0.00,,---,0.00,VWS V14.01,2013-01-17 08:13:00,
2013-01-17 02:18:00,76.5,51.0,26.99,ESE,121,7.6,7.6,32,0.00,,---,0.00,VWS V14.01,2013-01-17 08:18:00,
2013-01-17 02:23:00,76.5,51.0,26.99,ENE,72,11.4,11.4,32,0.00,,---,0.00,VWS V14.01,2013-01-17 08:23:00,
2013-01-17 02:28:00,76.5,51.0,26.99,SSE,148,4.0,6.3,32,0.00,,---,0.00,VWS V14.01,2013-01-17 08:28:00,
2013-01-17 02:33:00,76.5,51.0,26.99,ESE,116,8.1,10.5,32,0.00,,---,0.00,VWS V14.01,2013-01-17 08:33:00,
2013-01-17 02:38:00,76.5,51.0,26.99,ESE,114,6.3,10.5,32,0.00,,---,0.00,VWS V14.01,2013-01-17 08:38:00,
2013-01-17 02:43:00,76.5,51.0,26.99,East,83,15.0,15.0,32,0.00,,---,0.00,VWS V14.01,2013-01-17 08:43:00,
2013-01-17 02:48:00,76.5,51.0,26.99,ESE,112,5.4,10.5,32,0.00,,---,0.00,VWS V14.01,2013-01-17 08:48:00,
2013-01-17 02:53:00,76.5,51.0,26.99,East,86,5.4,8.7,32,0.00,,---,0.00,VWS V14.01,2013-01-17 08:53:00,
2013-01-17 02:58:00,76.5,51.0,26.99,East,87,10.5,10.5,32,0.00,,---,0.00,VWS V14.01,2013-01-17 08:58:00,
2013-01-17 03:03:00,76.5,51.0,26.99,SSE,159,8.7,8.7,32,0.00,,---,0.00,VWS V14.01,2013-01-17 09:03:00,
2013-01-17 03:08:00,76.5,51.0,26.99,SE,140,7.6,8.1,32,0.00,,---,0.00,VWS V14.01,2013-01-17 09:08:00,
2013-01-17 03:13:00,76.5,51.0,26.99,ESE,116,10.1,10.5,32,0.00,,---,0.00,VWS V14.01,2013-01-17 09:13:00,
2013-01-17 03:18:00,76.5,51.0,26.99,SE,129,5.8,7.6,32,0.00,,---,0.00,VWS V14.01,2013-01-17 09:18:00,
2013-01-17 03:23:00,76.5,51.0,26.99,South,186,9.6,9.6,32,0.00,,---,0.00,VWS V14.01,2013-01-17 09:23:00,
2013-01-17 03:28:00,76.5,51.0,26.99,SE,124,4.0,6.3,32,0.00,,---,0.00,VWS V14.01,2013-01-17 09:28:00,
2013-01-17 03:33:00,76.5,51.0,26.99,SE,134,5.4,9.2,32,0.00,,---,0.00,VWS V14.01,2013-01-17 09:33:00,
2013-01-17 03:38:00,76.5,51.0,27.02,East,98,8.3,8.3,32,0.00,,---,0.00,VWS V14.01,2013-01-17 09:38:00,
2013-01-17 03:43:00,76.5,51.0,27.02,SE,139,9.6,9.6,32,0.00,,---,0.00,VWS V14.01,2013-01-17 09:43:00,
2013-01-17 03:48:00,76.5,51.0,27.02,East,95,6.3,6.3,32,0.00,,---,0.00,VWS V14.01,2013-01-17 09:48:00,
2013-01-17 03:53:00,76.5,51.0,26.99,ESE,119,8.3,13.2,32,0.00,,---,0.00,VWS V14.01,2013-01-17 09:53:00,
2013-01-17 03:58:00,76.5,51.0,26.99,SE,143,5.8,10.5,32,0.00,,---,0.00,VWS V14.01,2013-01-17 09:58:00,
2013-01-17 04:03:00,76.5,51.0,26.99,East,100,5.8,7.6,32,0.00,,---,0.00,VWS V14.01,2013-01-17 10:03:00,
2013-01-17 04:08:00,76.5,51.0,26.99,SE,130,8.3,17.0,32,0.00,,---,0.00,VWS V14.01,2013-01-17 10:08:00,
2013-01-17 04:13:00,76.5,51.0,26.99,SE,136,5.4,5.8,32,0.00,,---,0.00,VWS V14.01,2013-01-17 10:13:00,
2013-01-17 04:18:00,76.5,51.0,26.99,ESE,122,6.7,6.7,32,0.00,,---,0.00,VWS V14.01,2013-01-17 10:18:00,
2013-01-17 04:23:00,76.5,51.0,27.02,East,87,12.3,12.3,32,0.00,,---,0.00,VWS V14.01,2013-01-17 10:23:00,
2013-01-17 04:28:00,76.5,51.0,27.02,SE,135,8.1,8.1,32,0.00,,---,0.00,VWS V14.01,2013-01-17 10:28:00,
2013-01-17 04:33:00,76.5,51.0,27.02,East,100,3.6,8.3,32,0.00,,---,0.00,VWS V14.01,2013-01-17 10:33:00,
2013-01-17 04:38:00,76.5,51.0,27.02,ESE,103,8.1,8.7,32,0.00,,---,0.00,VWS V14.01,2013-01-17 10:38:00,
2013-01-17 04:43:00,76.5,51.0,27.02,ESE,119,14.1,14.1,32,0.00,,---,0.00,VWS V14.01,2013-01-17 10:43:00,
2013-01-17 04:48:00,76.5,51.0,27.02,ESE,106,6.3,8.3,32,0.00,,---,0.00,VWS V14.01,2013-01-17 10:48:00,
2013-01-17 04:53:00,76.5,51.0,27.02,SSE,148,5.4,5.8,32,0.00,,---,0.00,VWS V14.01,2013-01-17 10:53:00,
2013-01-17 04:58:00,76.5,51.0,27.02,SE,137,4.0,6.3,32,0.00,,---,0.00,VWS V14.01,2013-01-17 10:58:00,
2013-01-17 05:03:00,76.5,51.0,27.02,SSE,147,8.3,8.3,32,0.00,,---,0.00,VWS V14.01,2013-01-17 11:03:00,
2013-01-17 05:08:00,76.5,51.0,27.02,SSE,153,8.7,8.7,32,0.00,,---,0.00,VWS V14.01,2013-01-17 11:08:00,
2013-01-17 05:13:00,76.5,51.0,27.02,ENE,78,5.4,7.2,32,0.00,,---,0.00,VWS V14.01,2013-01-17 11:13:00,
2013-01-17 05:18:00,76.5,51.0,27.02,SE,132,10.5,15.4,32,0.00,,---,0.00,VWS V14.01,2013-01-17 11:18:00,
2013-01-17 05:23:00,76.5,51.0,27.02,East,99,5.4,10.5,32,0.00,,---,0.00,VWS V14.01,2013-01-17 11:23:00,
2013-01-17 05:28:00,76.5,51.0,27.02,SE,128,4.9,11.0,32,0.00,,---,0.00,VWS V14.01,2013-01-17 11:28:00,
2013-01-17 05:33:00,76.5,51.0,27.02,ESE,108,11.0,11.0,32,0.00,,---,0.00,VWS V14.01,2013-01-17 11:33:00,
2013-01-17 05:38:00,76.5,51.0,27.02,ESE,115,7.6,8.7,32,0.00,,---,0.00,VWS V14.01,2013-01-17 11:38:00,
2013-01-17 05:43:00,76.5,51.0,27.02,East,97,10.1,10.1,32,0.00,,---,0.00,VWS V14.01,2013-01-17 11:43:00,
2013-01-17 05:48:00,76.5,51.0,27.02,SE,144,11.0,11.0,32,0.00,,---,0.00,VWS V14.01,2013-01-17 11:48:00,
2013-01-17 05:53:00,76.5,51.0,27.02,South,183,7.6,7.6,32,0.00,,---,0.00,VWS V14.01,2013-01-17 11:53:00,
2013-01-17 05:58:00,76.5,51.0,27.02,South,170,5.8,7.6,32,0.00,,---,0.00,VWS V14.01,2013-01-17 11:58:00,
2013-01-17 06:03:00,76.5,51.0,27.02,SE,129,10.5,10.5,32,0.00,,---,0.00,VWS V14.01,2013-01-17 12:03:00,
2013-01-17 06:08:00,76.5,51.0,27.02,SE,132,5.8,9.6,32,0.00,,---,0.00,VWS V14.01,2013-01-17 12:08:00,
2013-01-17 06:13:00,76.5,51.0,27.02,SSE,153,5.8,12.3,32,0.00,,---,0.00,VWS V14.01,2013-01-17 12:13:00,
2013-01-17 06:18:00,76.5,51.0,27.02,East,91,10.1,10.1,32,0.00,,---,0.00,VWS V14.01,2013-01-17 12:18:00,
2013-01-17 06:23:00,76.5,51.0,27.02,ESE,115,6.3,12.3,32,0.00,,---,0.00,VWS V14.01,2013-01-17 12:23:00,
2013-01-17 06:28:00,76.5,51.0,27.02,SE,145,8.3,10.5,32,0.00,,---,0.00,VWS V14.01,2013-01-17 12:28:00,
2013-01-17 06:33:00,76.5,51.0,27.02,East,95,10.5,12.3,32,0.00,,---,0.00,VWS V14.01,2013-01-17 12:33:00,
2013-01-17 06:38:00,76.5,51.0,27.02,SE,139,12.8,12.8,32,0.00,,---,0.00,VWS V14.01,2013-01-17 12:38:00,
2013-01-17 06:43:00,76.5,51.0,27.02,SSE,155,5.4,6.3,32,0.00,,---,0.00,VWS V14.01,2013-01-17 12:43:00,
2013-01-17 06:48:00,76.5,51.0,27.02,East,96,13.2,13.2,32,0.00,,---,0.00,VWS V14.01,2013-01-17 12:48:00,
2013-01-17 06:53:00,76.5,51.0,27.05,ESE,106,7.6,8.1,32,0.00,,---,0.00,VWS V14.01,2013-01-17 12:53:00,
2013-01-17 06:58:00,76.5,51.0,27.05,ESE,120,5.4,5.4,32,0.00,,---,0.00,VWS V14.01,2013-01-17 12:58:00,
2013-01-17 07:03:00,76.5,51.0,27.05,ESE,122,6.7,6.7,32,0.00,,---,0.00,VWS V14.01,2013-01-17 13:03:00,
2013-01-17 07:08:00,76.5,51.0,27.05,SE,140,6.3,6.3,32,0.00,,---,0.00,VWS V14.01,2013-01-17 13:08:00,
2013-01-17 07:13:00,76.5,51.0,27.05,ESE,105,8.1,8.7,32,0.00,,---,0.00,VWS V14.01,2013-01-17 13:13:00,
2013-01-17 07:18:00,76.5,51.0,27.05,ESE,114,7.2,7.2,32,0.00,,---,0.00,VWS V14.01,2013-01-17 13:18:00,
2013-01-17 07:23:00,76.5,51.0,27.05,SSE,147,5.8,8.1,32,0.00,,---,0.00,VWS V14.01,2013-01-17 13:23:00,
2013-01-17 07:28:00,76.5,51.0,27.08,SSE,155,5.4,7.6,32,0.00,,---,0.00,VWS V14.01,2013-01-17 13:28:00,
2013-01-17 07:33:00,76.5,51.0,27.08,ESE,102,8.1,8.1,32,0.00,,---,0.00,VWS V14.01,2013-01-17 13:33:00,
2013-01-17 07:38:00,76.5,51.0,27.05,East,94,4.9,10.5,32,0.00,,---,0.00,VWS V14.01,2013-01-17 13:38:00,
2013-01-17 07:43:00,76.5,51.0,27.05,ESE,119,6.3,10.5,32,0.00,,---,0.00,VWS V14.01,2013-01-17 13:43:00,
2013-01-17 07:48:00,76.5,51.0,27.05,ENE,63,4.0,8.3,32,0.00,,---,0.00,VWS V14.01,2013-01-17 13:48:00,
2013-01-17 07:53:00,76.5,51.0,27.05,South,173,7.6,7.6,32,0.00,,---,0.00,VWS V14.01,2013-01-17 13:53:00,
2013-01-17 07:58:00,76.5,51.0,27.08,SE,131,5.4,8.1,32,0.00,,---,0.00,VWS V14.01,2013-01-17 13:58:00,
2013-01-17 08:03:00,76.5,51.0,27.08,ESE,109,2.7,5.8,32,0.00,,---,0.00,VWS V14.01,2013-01-17 14:03:00,
2013-01-17 08:08:00,76.5,51.0,27.08,ENE,70,3.6,8.1,32,0.00,,---,0.00,VWS V14.01,2013-01-17 14:08:00,
2013-01-17 08:13:00,76.5,51.0,27.08,ESE,122,3.6,25.7,32,0.00,,---,0.00,VWS V14.01,2013-01-17 14:13:00,
2013-01-17 08:18:00,76.5,51.0,27.08,ESE,104,5.4,6.3,32,0.00,,---,0.00,VWS V14.01,2013-01-17 14:18:00,
2013-01-17 08:23:00,76.5,51.0,27.08,East,92,7.2,14.5,32,0.00,,---,0.00,VWS V14.01,2013-01-17 14:23:00,
2013-01-17 08:28:00,76.5,51.0,27.08,South,173,5.4,5.8,32,0.00,,---,0.00,VWS V14.01,2013-01-17 14:28:00,
2013-01-17 08:33:00,76.5,51.0,27.08,ESE,107,5.8,5.8,32,0.00,,---,0.00,VWS V14.01,2013-01-17 14:33:00,
2013-01-17 08:38:00,76.5,51.0,27.08,NE,46,10.1,10.1,32,0.00,,---,0.00,VWS V14.01,2013-01-17 14:38:00,
2013-01-17 08:43:00,76.5,51.0,27.08,East,85,6.7,8.1,32,0.00,,---,0.00,VWS V14.01,2013-01-17 14:43:00,
2013-01-17 08:48:00,76.5,51.0,27.08,ESE,109,14.1,14.1,32,0.00,,---,0.00,VWS V14.01,2013-01-17 14:48:00,
2013-01-17 08:53:00,76.5,51.0,27.08,East,99,12.3,12.3,32,0.00,,---,0.00,VWS V14.01,2013-01-17 14:53:00,
2013-01-17 08:58:00,76.5,51.0,27.08,East,93,7.2,11.0,32,0.00,,---,0.00,VWS V14.01,2013-01-17 14:58:00,
2013-01-17 09:03:00,76.5,51.0,27.08,ESE,108,8.7,8.7,32,0.00,,---,0.00,VWS V14.01,2013-01-17 15:03:00,
2013-01-17 09:08:00,76.5,51.0,27.08,East,91,5.4,11.0,32,0.00,,---,0.00,VWS V14.01,2013-01-17 15:08:00,
2013-01-17 09:13:00,76.5,51.0,27.08,NNE,21,4.0,14.5,32,0.00,,---,0.00,VWS V14.01,2013-01-17 15:13:00,
2013-01-17 09:18:00,76.5,51.0,27.08,SE,138,12.8,12.8,32,0.00,,---,0.00,VWS V14.01,2013-01-17 15:18:00,
2013-01-17 09:23:00,76.5,51.0,27.08,ENE,67,10.5,10.5,32,0.00,,---,0.00,VWS V14.01,2013-01-17 15:23:00,
2013-01-17 09:28:00,76.5,51.0,27.08,SE,128,3.1,6.7,32,0.00,,---,0.00,VWS V14.01,2013-01-17 15:28:00,
2013-01-17 09:33:00,76.5,51.0,27.08,SE,137,4.9,10.5,32,0.00,,---,0.00,VWS V14.01,2013-01-17 15:33:00,
2013-01-17 09:38:00,76.5,51.0,27.08,ESE,111,5.4,10.1,32,0.00,,---,0.00,VWS V14.01,2013-01-17 15:38:00,
2013-01-17 09:43:00,76.5,51.0,27.11,ESE,104,5.8,10.1,32,0.00,,---,0.00,VWS V14.01,2013-01-17 15:43:00,
2013-01-17 09:48:00,76.5,51.0,27.11,NE,47,4.0,4.9,32,0.00,,---,0.00,VWS V14.01,2013-01-17 15:48:00,
2013-01-17 09:53:00,76.5,51.0,27.11,ENE,72,4.0,5.4,32,0.00,,---,0.00,VWS V14.01,2013-01-17 15:53:00,
2013-01-17 09:58:00,76.5,51.0,27.11,East,100,5.4,6.3,32,0.00,,---,0.00,VWS V14.01,2013-01-17 15:58:00,
2013-01-17 10:03:00,76.5,51.0,27.11,ESE,109,3.6,4.9,32,0.00,,---,0.00,VWS V14.01,2013-01-17 16:03:00,
2013-01-17 10:08:00,76.5,51.0,27.11,ESE,112,8.3,8.3,32,0.00,,---,0.00,VWS V14.01,2013-01-17 16:08:00,
2013-01-17 10:13:00,76.5,51.0,27.11,SSE,148,5.4,6.3,32,0.00,,---,0.00,VWS V14.01,2013-01-17 16:13:00,
2013-01-17 10:18:00,76.5,51.0,27.11,East,93,8.7,8.7,32,0.00,,---,0.00,VWS V14.01,2013-01-17 16:18:00,
2013-01-17 10:23:00,76.5,51.0,27.11,East,92,3.6,11.0,32,0.00,,---,0.00,VWS V14.01,2013-01-17 16:23:00,
2013-01-17 10:28:00,76.5,51.0,27.08,ENE,69,7.6,7.6,32,0.00,,---,0.00,VWS V14.01,2013-01-17 16:28:00,
2013-01-17 10:33:00,76.5,51.0,27.08,ESE,105,11.9,11.9,32,0.00,,---,0.00,VWS V14.01,2013-01-17 16:33:00,
2013-01-17 10:38:00,76.5,51.0,27.08,East,86,7.6,15.0,32,0.00,,---,0.00,VWS V14.01,2013-01-17 16:38:00,
2013-01-17 10:43:00,76.5,51.0,27.08,ENE,76,13.2,13.2,32,0.00,,---,0.00,VWS V14.01,2013-01-17 16:43:00,
2013-01-17 10:48:00,76.5,51.0,27.08,East,100,6.3,8.1,32,0.00,,---,0.00,VWS V14.01,2013-01-17 16:48:00,
2013-01-17 10:53:00,76.5,51.0,27.08,SE,132,14.5,14.5,32,0.00,,---,0.00,VWS V14.01,2013-01-17 16:53:00,
2013-01-17 10:58:00,76.5,51.0,27.11,SE,138,10.5,10.5,32,0.00,,---,0.00,VWS V14.01,2013-01-17 16:58:00,
2013-01-17 11:03:00,76.5,51.0,27.11,ENE,71,11.9,11.9,32,0.00,,---,0.00,VWS V14.01,2013-01-17 17:03:00,
2013-01-17 11:08:00,76.5,51.0,27.11,East,86,3.6,3.6,32,0.00,,---,0.00,VWS V14.01,2013-01-17 17:08:00,
2013-01-17 11:13:00,76.5,51.0,27.08,ESE,120,10.5,10.5,32,0.00,,---,0.00,VWS V14.01,2013-01-17 17:13:00,
2013-01-17 11:18:00,76.5,51.0,27.08,ESE,103,5.4,8.1,32,0.00,,---,0.00,VWS V14.01,2013-01-17 17:18:00,
2013-01-17 11:23:00,76.5,51.0,27.08,East,93,8.7,8.7,32,0.00,,---,0.00,VWS V14.01,2013-01-17 17:23:00,
2013-01-17 11:28:00,76.5,51.0,27.08,ESE,109,7.6,7.6,32,0.00,,---,0.00,VWS V14.01,2013-01-17 17:28:00,
2013-01-17 11:33:00,76.5,51.0,27.08,NE,46,5.8,5.8,32,0.00,,---,0.00,VWS V14.01,2013-01-17 17:33:00,
2013-01-17 11:38:00,76.5,51.0,27.08,East,99,5.4,8.7,32,0.00,,---,0.00,VWS V14.01,2013-01-17 17:38:00,
2013-01-17 11:43:00,76.5,51.0,27.08,SSE,158,5.4,8.1,32,0.00,,---,0.00,VWS V14.01,2013-01-17 17:43:00,
2013-01-17 11:48:00,76.5,51.0,27.08,East,98,12.8,12.8,32,0.00,,---,0.00,VWS V14.01,2013-01-17 17:48:00,
2013-01-17 11:53:00,76.5,51.0,27.08,South,173,4.9,4.9,32,0.00,,---,0.00,VWS V14.01,2013-01-17 17:53:00,
2013-01-17 11:58:00,76.5,51.0,27.08,ENE,75,7.6,7.6,32,0.00,,---,0.00,VWS V14.01,2013-01-17 17:58:00,
2013-01-17 12:03:00,76.5,51.0,27.08,SE,131,6.3,8.3,32,0.00,,---,0.00,VWS V14.01,2013-01-17 18:03:00,
2013-01-17 12:08:00,76.5,51.0,27.08,ENE,72,7.6,7.6,32,0.00,,---,0.00,VWS V14.01,2013-01-17 18:08:00,
2013-01-17 12:13:00,76.5,51.0,27.05,NE,55,4.0,6.3,32,0.00,,---,0.00,VWS V14.01,2013-01-17 18:13:00,
2013-01-17 12:18:00,76.5,51.0,27.05,East,83,5.4,5.8,32,0.00,,---,0.00,VWS V14.01,2013-01-17 18:18:00,
2013-01-17 12:23:00,76.5,51.0,27.05,SE,144,8.7,8.7,32,0.00,,---,0.00,VWS V14.01,2013-01-17 18:23:00,
2013-01-17 12:28:00,76.5,51.0,27.05,ESE,118,8.7,11.0,32,0.00,,---,0.00,VWS V14.01,2013-01-17 18:28:00,
2013-01-17 12:33:00,76.5,51.0,27.05,NE,48,8.1,8.7,32,0.00,,---,0.00,VWS V14.01,2013-01-17 18:33:00,
2013-01-17 12:38:00,76.5,51.0,27.05,North,353,8.3,11.0,32,0.00,,---,0.00,VWS V14.01,2013-01-17 18:38:00,
2013-01-17 12:43:00,76.5,51.0,27.05,ESE,122,5.8,5.8,32,0.00,,---,0.00,VWS V14.01,2013-01-17 18:43:00,
2013-01-17 12:48:00,76.5,51.0,27.05,SSE,155,3.1,8.1,32,0.00,,---,0.00,VWS V14.01,2013-01-17 18:48:00,
2013-01-17 12:53:00,76.5,51.0,27.05,ESE,112,4.5,4.5,32,0.00,,---,0.00,VWS V14.01,2013-01-17 18:53:00,
2013-01-17 12:58:00,76.5,51.0,27.05,SE,125,2.7,3.1,32,0.00,,---,0.00,VWS V14.01,2013-01-17 18:58:00,
2013-01-17 13:03:00,76.5,51.0,27.05,SE,144,4.9,4.9,32,0.00,,---,0.00,VWS V14.01,2013-01-17 19:03:00,
2013-01-17 13:08:00,76.5,51.0,27.05,SSE,149,3.1,5.4,32,0.00,,---,0.00,VWS V14.01,2013-01-17 19:08:00,
2013-01-17 13:13:00,76.5,51.0,27.05,SE,140,4.0,4.0,32,0.00,,---,0.00,VWS V14.01,2013-01-17 19:13:00,
2013-01-17 13:18:00,76.5,51.0,27.05,SSE,153,4.0,4.0,32,0.00,,---,0.00,VWS V14.01,2013-01-17 19:18:00,
2013-01-17 13:23:00,76.5,51.0,27.05,SE,145,3.6,6.3,32,0.00,,---,0.00,VWS V14.01,2013-01-17 19:23:00,
2013-01-17 13:28:00,76.5,51.0,27.05,NNE,32,4.9,8.3,32,0.00,,---,0.00,VWS V14.01,2013-01-17 19:28:00,
2013-01-17 13:33:00,76.5,51.0,27.05,East,91,5.8,5.8,32,0.00,,---,0.00,VWS V14.01,2013-01-17 19:33:00,
2013-01-17 13:38:00,76.5,51.0,27.05,SSE,164,5.4,5.4,32,0.00,,---,0.00,VWS V14.01,2013-01-17 19:38:00,
2013-01-17 13:43:00,76.5,51.0,27.02,SSE,150,4.9,4.9,32,0.00,,---,0.00,VWS V14.01,2013-01-17 19:43:00,
2013-01-17 13:48:00,76.5,51.0,27.02,ESE,111,3.6,3.6,32,0.00,,---,0.00,VWS V14.01,2013-01-17 19:48:00,
2013-01-17 13:53:00,76.5,51.0,27.05,ENE,67,5.8,10.1,32,0.00,,---,0.00,VWS V14.01,2013-01-17 19:53:00,
2013-01-17 13:58:00,76.5,51.0,27.05,ESE,121,3.6,5.4,32,0.00,,---,0.00,VWS V14.01,2013-01-17 19:58:00,
2013-01-17 14:03:00,76.5,51.0,27.05,South,182,5.4,15.9,32,0.00,,---,0.00,VWS V14.01,2013-01-17 20:03:00,
2013-01-17 14:08:00,76.5,51.0,27.05,East,100,6.3,9.6,32,0.00,,---,0.00,VWS V14.01,2013-01-17 20:08:00,
2013-01-17 14:13:00,76.5,51.0,27.05,SE,142,11.0,11.0,32,0.00,,---,0.00,VWS V14.01,2013-01-17 20:13:00,
2013-01-17 14:18:00,76.5,51.0,27.05,ESE,107,4.0,4.9,32,0.00,,---,0.00,VWS V14.01,2013-01-17 20:18:00,
2013-01-17 14:23:00,76.5,51.0,27.05,SE,127,10.5,10.5,32,0.00,,---,0.00,VWS V14.01,2013-01-17 20:23:00,
2013-01-17 14:28:00,76.5,51.0,27.05,SE,145,6.7,12.3,32,0.00,,---,0.00,VWS V14.01,2013-01-17 20:28:00,
2013-01-17 14:33:00,76.5,51.0,27.05,SE,131,4.9,8.3,32,0.00,,---,0.00,VWS V14.01,2013-01-17 20:33:00,
2013-01-17 14:38:00,76.5,51.0,27.02,SE,125,5.8,6.3,32,0.00,,---,0.00,VWS V14.01,2013-01-17 20:38:00,
2013-01-17 14:43:00,76.5,51.0,27.02,South,176,5.4,8.3,32,0.00,,---,0.00,VWS V14.01,2013-01-17 20:43:00,
2013-01-17 14:48:00,76.5,51.0,27.02,ENE,59,6.3,6.3,32,0.00,,---,0.00,VWS V14.01,2013-01-17 20:48:00,
2013-01-17 14:53:00,76.5,51.0,27.02,ESE,122,8.1,8.1,32,0.00,,---,0.00,VWS V14.01,2013-01-17 20:53:00,
2013-01-17 14:58:00,76.5,51.0,27.02,SE,128,6.3,8.1,32,0.00,,---,0.00,VWS V14.01,2013-01-17 20:58:00,
2013-01-17 15:03:00,76.5,51.0,27.02,East,88,8.3,8.3,32,0.00,,---,0.00,VWS V14.01,2013-01-17 21:03:00,
2013-01-17 15:08:00,76.5,51.0,27.02,ESE,112,5.8,6.3,32,0.00,,---,0.00,VWS V14.01,2013-01-17 21:08:00,
2013-01-17 15:13:00,76.5,51.0,27.02,East,93,5.8,6.3,32,0.00,,---,0.00,VWS V14.01,2013-01-17 21:13:00,
2013-01-17 15:18:00,76.5,51.0,27.02,SSE,157,8.1,8.1,32,0.00,,---,0.00,VWS V14.01,2013-01-17 21:18:00,
2013-01-17 15:23:00,76.5,51.0,27.02,East,96,5.4,5.4,32,0.00,,---,0.00,VWS V14.01,2013-01-17 21:23:00,
2013-01-17 15:28:00,76.5,51.0,27.02,ESE,108,5.8,5.8,32,0.00,,---,0.00,VWS V14.01,2013-01-17 21:28:00,
2013-01-17 15:33:00,76.5,51.0,27.02,SE,132,8.1,8.1,32,0.00,,---,0.00,VWS V14.01,2013-01-17 21:33:00,
2013-01-17 15:38:00,76.5,51.0,27.02,ESE,103,5.8,5.8,32,0.00,,---,0.00,VWS V14.01,2013-01-17 21:38:00,
2013-01-17 15:43:00,76.5,51.0,27.02,East,101,5.8,5.8,32,0.00,,---,0.00,VWS V14.01,2013-01-17 21:43:00,
2013-01-17 15:48:00,76.5,51.0,27.02,ESE,105,8.3,8.3,32,0.00,,---,0.00,VWS V14.01,2013-01-17 21:48:00,
2013-01-17 15:53:00,76.5,51.0,27.02,ESE,103,7.6,7.6,32,0.00,,---,0.00,VWS V14.01,2013-01-17 21:53:00,
2013-01-17 15:58:00,76.5,51.0,27.02,ESE,122,8.1,12.8,32,0.00,,---,0.00,VWS V14.01,2013-01-17 21:58:00,
2013-01-17 16:03:00,76.5,51.0,27.02,SE,133,10.5,10.5,32,0.00,,---,0.00,VWS V14.01,2013-01-17 22:03:00,
2013-01-17 16:08:00,76.5,51.0,27.02,ENE,69,6.3,10.5,32,0.00,,---,0.00,VWS V14.01,2013-01-17 22:08:00,
2013-01-17 16:13:00,76.5,51.0,27.05,SE,129,5.8,8.3,32,0.00,,---,0.00,VWS V14.01,2013-01-17 22:13:00,
2013-01-17 16:18:00,76.5,51.0,27.05,SE,132,4.9,5.4,32,0.00,,---,0.00,VWS V14.01,2013-01-17 22:18:00,
2013-01-17 16:23:00,76.5,51.0,27.05,SSE,167,5.4,6.3,32,0.00,,---,0.00,VWS V14.01,2013-01-17 22:23:00,
2013-01-17 16:28:00,76.5,51.0,27.05,East,89,9.6,9.6,32,0.00,,---,0.00,VWS V14.01,2013-01-17 22:28:00,
2013-01-17 16:33:00,76.5,51.0,27.05,SSE,149,6.3,8.3,32,0.00,,---,0.00,VWS V14.01,2013-01-17 22:33:00,
2013-01-17 16:38:00,76.5,51.0,27.05,South,184,5.4,10.1,32,0.00,,---,0.00,VWS V14.01,2013-01-17 22:38:00,
2013-01-17 16:43:00,76.5,51.0,27.05,ESE,102,3.6,8.7,32,0.00,,---,0.00,VWS V14.01,2013-01-17 22:43:00,
2013-01-17 16:48:00,76.5,51.0,27.05,ESE,109,11.0,11.0,32,0.00,,---,0.00,VWS V14.01,2013-01-17 22:48:00,
2013-01-17 16:53:00,76.5,51.0,27.05,SE,142,7.6,7.6,32,0.00,,---,0.00,VWS V14.01,2013-01-17 22:53:00,
2013-01-17 16:58:00,76.5,51.0,27.05,ESE,110,6.3,8.7,32,0.00,,---,0.00,VWS V14.01,2013-01-17 22:58:00,
2013-01-17 17:03:00,76.5,51.0,27.05,East,87,6.3,6.3,32,0.00,,---,0.00,VWS V14.01,2013-01-17 23:03:00,
2013-01-17 17:08:00,76.5,51.0,27.05,ESE,103,8.7,8.7,32,0.00,,---,0.00,VWS V14.01,2013-01-17 23:08:00,
2013-01-17 17:13:00,76.5,51.0,27.05,SSE,150,8.3,8.3,32,0.00,,---,0.00,VWS V14.01,2013-01-17 23:13:00,
2013-01-17 17:18:00,76.5,51.0,27.05,SE,136,8.1,10.5,32,0.00,,---,0.00,VWS V14.01,2013-01-17 23:18:00,
2013-01-17 17:23:00,76.5,51.0,27.05,East,98,5.4,7.6,32,0.00,,---,0.00,VWS V14.01,2013-01-17 23:23:00,
2013-01-17 17:28:00,76.5,51.0,27.05,SSE,154,5.4,5.4,32,0.00,,---,0.00,VWS V14.01,2013-01-17 23:28:00,
2013-01-17 17:33:00,76.5,51.0,27.05,ENE,75,5.4,7.2,32,0.00,,---,0.00,VWS V14.01,2013-01-17 23:33:00,
2013-01-17 17:38:00,76.5,51.0,27.05,East,83,10.5,10.5,32,0.00,,---,0.00,VWS V14.01,2013-01-17 23:38:00,
2013-01-17 17:43:00,76.5,51.0,27.05,ESE,119,5.8,7.6,32,0.00,,---,0.00,VWS V14.01,2013-01-17 23:43:00,
2013-01-17 17:48:00,76.5,51.0,27.05,SSE,152,5.4,5.8,32,0.00,,---,0.00,VWS V14.01,2013-01-17 23:48:00,
2013-01-17 17:53:00,76.5,51.0,27.05,SE,139,5.4,7.6,32,0.00,,---,0.00,VWS V14.01,2013-01-17 23:53:00,
2013-01-17 17:58:00,76.5,51.0,27.05,SE,126,10.5,10.5,32,0.00,,---,0.00,VWS V14.01,2013-01-17 23:58:00,
2013-01-17 18:03:00,76.5,51.0,27.05,SE,136,5.4,5.4,32,0.00,,---,0.00,VWS V14.01,2013-01-18 00:03:00,
2013-01-17 18:08:00,76.5,51.0,27.05,ENE,73,6.7,7.6,32,0.00,,---,0.00,VWS V14.01,2013-01-18 00:08:00,
2013-01-17 18:13:00,76.5,51.0,27.05,SSE,161,8.3,8.3,32,0.00,,---,0.00,VWS V14.01,2013-01-18 00:13:00,
2013-01-17 18:18:00,76.5,51.0,27.05,East,101,7.6,9.6,32,0.00,,---,0.00,VWS V14.01,2013-01-18 00:18:00,
2013-01-17 18:23:00,76.5,51.0,27.05,SE,133,4.9,5.8,32,0.00,,---,0.00,VWS V14.01,2013-01-18 00:23:00,
2013-01-17 18:28:00,76.5,51.0,27.05,East,90,15.0,15.0,32,0.00,,---,0.00,VWS V14.01,2013-01-18 00:28:00,
2013-01-17 18:33:00,76.5,51.0,27.05,East,100,8.7,8.7,32,0.00,,---,0.00,VWS V14.01,2013-01-18 00:33:00,
2013-01-17 18:38:00,76.5,51.0,27.08,East,96,8.7,16.8,32,0.00,,---,0.00,VWS V14.01,2013-01-18 00:38:00,
2013-01-17 18:43:00,76.5,51.0,27.08,ESE,123,8.1,8.1,32,0.00,,---,0.00,VWS V14.01,2013-01-18 00:43:00,
2013-01-17 18:48:00,76.5,51.0,27.08,SE,135,8.7,8.7,32,0.00,,---,0.00,VWS V14.01,2013-01-18 00:48:00,
2013-01-17 18:53:00,76.5,51.0,27.08,ESE,108,8.7,10.1,32,0.00,,---,0.00,VWS V14.01,2013-01-18 00:53:00,
2013-01-17 18:58:00,76.5,51.0,27.08,East,100,8.1,12.8,32,0.00,,---,0.00,VWS V14.01,2013-01-18 00:58:00,
2013-01-17 19:03:00,76.5,51.0,27.08,East,94,5.8,6.3,32,0.00,,---,0.00,VWS V14.01,2013-01-18 01:03:00,
2013-01-17 19:08:00,76.5,51.0,27.08,ESE,123,12.8,12.8,32,0.00,,---,0.00,VWS V14.01,2013-01-18 01:08:00,
2013-01-17 19:13:00,76.5,51.0,27.08,SE,128,9.6,9.6,32,0.00,,---,0.00,VWS V14.01,2013-01-18 01:13:00,
2013-01-17 19:18:00,76.5,51.0,27.08,SSE,158,5.8,5.8,32,0.00,,---,0.00,VWS V14.01,2013-01-18 01:18:00,
2013-01-17 19:23:00,76.5,51.0,27.08,ESE,105,10.5,10.5,32,0.00,,---,0.00,VWS V14.01,2013-01-18 01:23:00,
2013-01-17 19:28:00,76.5,51.0,27.08,East,88,12.8,12.8,32,0.00,,---,0.00,VWS V14.01,2013-01-18 01:28:00,
2013-01-17 19:33:00,76.5,51.0,27.08,ENE,59,4.9,4.9,32,0.00,,---,0.00,VWS V14.01,2013-01-18 01:33:00,
2013-01-17 19:38:00,76.5,51.0,27.08,East,82,5.8,13.2,32,0.00,,---,0.00,VWS V14.01,2013-01-18 01:38:00,
2013-01-17 19:43:00,76.5,51.0,27.08,ESE,108,5.8,10.1,32,0.00,,---,0.00,VWS V14.01,2013-01-18 01:43:00,
2013-01-17 19:48:00,76.5,51.0,27.08,East,95,8.7,8.7,32,0.00,,---,0.00,VWS V14.01,2013-01-18 01:48:00,
2013-01-17 19:53:00,76.5,51.0,27.08,East,79,8.7,8.7,32,0.00,,---,0.00,VWS V14.01,2013-01-18 01:53:00,
2013-01-17 19:58:00,76.5,51.0,27.08,NNE,28,8.3,8.3,32,0.00,,---,0.00,VWS V14.01,2013-01-18 01:58:00,
2013-01-17 20:03:00,76.5,51.0,27.08,ESE,113,14.5,15.0,32,0.00,,---,0.00,VWS V14.01,2013-01-18 02:03:00,
2013-01-17 20:08:00,76.5,51.0,27.08,East,101,7.6,11.0,32,0.00,,---,0.00,VWS V14.01,2013-01-18 02:08:00,
2013-01-17 20:13:00,76.5,51.0,27.08,East,90,12.8,12.8,32,0.00,,---,0.00,VWS V14.01,2013-01-18 02:13:00,
2013-01-17 20:18:00,76.5,51.0,27.08,East,93,8.7,8.7,32,0.00,,---,0.00,VWS V14.01,2013-01-18 02:18:00,
2013-01-17 20:23:00,76.5,51.0,27.08,ESE,115,7.6,7.6,32,0.00,,---,0.00,VWS V14.01,2013-01-18 02:23:00,
2013-01-17 20:28:00,76.5,51.0,27.08,SE,143,6.3,8.3,32,0.00,,---,0.00,VWS V14.01,2013-01-18 02:28:00,
2013-01-17 20:33:00,76.5,51.0,27.08,SE,138,5.8,8.1,32,0.00,,---,0.00,VWS V14.01,2013-01-18 02:33:00,
2013-01-17 20:38:00,76.5,51.0,27.08,ESE,109,9.6,9.6,32,0.00,,---,0.00,VWS V14.01,2013-01-18 02:38:00,
2013-01-17 20:43:00,76.5,51.0,27.08,SSE,152,11.4,13.2,32,0.00,,---,0.00,VWS V14.01,2013-01-18 02:43:00,
2013-01-17 20:48:00,76.5,51.0,27.08,ESE,118,5.4,5.4,32,0.00,,---,0.00,VWS V14.01,2013-01-18 02:48:00,
2013-01-17 20:53:00,76.5,51.0,27.08,East,88,8.7,15.0,32,0.00,,---,0.00,VWS V14.01,2013-01-18 02:53:00,
2013-01-17 20:58:00,76.5,51.0,27.08,SSE,154,11.0,11.0,32,0.00,,---,0.00,VWS V14.01,2013-01-18 02:58:00,
2013-01-17 21:03:00,76.5,51.0,27.08,ESE,112,8.1,8.1,32,0.00,,---,0.00,VWS V14.01,2013-01-18 03:03:00,
2013-01-17 21:08:00,76.5,51.0,27.08,SSE,154,3.1,8.1,32,0.00,,---,0.00,VWS V14.01,2013-01-18 03:08:00,
2013-01-17 21:13:00,76.5,51.0,27.08,NNE,14,13.2,13.2,32,0.00,,---,0.00,VWS V14.01,2013-01-18 03:13:00,
2013-01-17 21:18:00,76.5,51.0,27.08,East,91,11.0,11.0,32,0.00,,---,0.00,VWS V14.01,2013-01-18 03:18:00,
2013-01-17 21:23:00,76.5,51.0,27.08,ENE,77,5.4,7.6,32,0.00,,---,0.00,VWS V14.01,2013-01-18 03:23:00,
2013-01-17 21:28:00,76.5,51.0,27.05,ESE,104,8.1,11.0,32,0.00,,---,0.00,VWS V14.01,2013-01-18 03:28:00,
2013-01-17 21:33:00,76.5,51.0,27.05,ESE,120,5.4,10.5,32,0.00,,---,0.00,VWS V14.01,2013-01-18 03:33:00,
2013-01-17 21:38:00,76.5,51.0,27.05,SE,128,7.6,7.6,32,0.00,,---,0.00,VWS V14.01,2013-01-18 03:38:00,
2013-01-17 21:43:00,76.5,51.0,27.08,SSE,158,7.6,10.5,32,0.00,,---,0.00,VWS V14.01,2013-01-18 03:43:00,
2013-01-17 21:48:00,76.5,51.0,27.08,ESE,122,8.3,11.4,32,0.00,,---,0.00,VWS V14.01,2013-01-18 03:48:00,
2013-01-17 21:53:00,76.5,51.0,27.08,East,87,16.3,16.3,32,0.00,,---,0.00,VWS V14.01,2013-01-18 03:53:00,
2013-01-17 21:58:00,76.5,51.0,27.08,SE,141,6.3,13.2,32,0.00,,---,0.00,VWS V14.01,2013-01-18 03:58:00,
2013-01-17 22:03:00,76.5,51.0,27.08,East,93,14.5,14.5,32,0.00,,---,0.00,VWS V14.01,2013-01-18 04:03:00,
2013-01-17 22:08:00,76.5,51.0,27.08,ESE,119,8.3,10.5,32,0.00,,---,0.00,VWS V14.01,2013-01-18 04:08:00,
2013-01-17 22:13:00,76.5,51.0,27.08,SSE,155,8.7,8.7,32,0.00,,---,0.00,VWS V14.01,2013-01-18 04:13:00,
2013-01-17 22:18:00,76.5,51.0,27.08,ENE,71,10.1,10.1,32,0.00,,---,0.00,VWS V14.01,2013-01-18 04:18:00,
2013-01-17 22:23:00,76.5,51.0,27.08,East,97,10.5,13.2,32,0.00,,---,0.00,VWS V14.01,2013-01-18 04:23:00,
2013-01-17 22:28:00,76.5,51.0,27.05,SE,129,8.7,10.1,32,0.00,,---,0.00,VWS V14.01,2013-01-18 04:28:00,
2013-01-17 22:33:00,76.5,51.0,27.05,East,101,5.8,8.3,32,0.00,,---,0.00,VWS V14.01,2013-01-18 04:33:00,
2013-01-17 22:38:00,76.5,51.0,27.05,East,92,12.8,12.8,32,0.00,,---,0.00,VWS V14.01,2013-01-18 04:38:00,
2013-01-17 22:43:00,76.5,51.0,27.05,ESE,114,8.1,8.1,32,0.00,,---,0.00,VWS V14.01,2013-01-18 04:43:00,
2013-01-17 22:48:00,76.5,51.0,27.05,SSE,156,7.2,7.2,32,0.00,,---,0.00,VWS V14.01,2013-01-18 04:48:00,
2013-01-17 22:53:00,76.5,51.0,27.05,ESE,103,8.7,10.5,32,0.00,,---,0.00,VWS V14.01,2013-01-18 04:53:00,
2013-01-17 22:58:00,76.5,51.0,27.08,East,87,17.9,17.9,32,0.00,,---,0.00,VWS V14.01,2013-01-18 04:58:00,
2013-01-17 23:02:00,76.5,51.0,27.08,SE,126,5.4,5.4,32,0.00,,---,0.00,VWS V14.01,2013-01-18 05:02:00,
2013-01-17 23:03:00,76.5,51.0,27.08,SE,126,5.4,5.4,32,0.00,,---,0.00,VWS V14.01,2013-01-18 05:03:00,
2013-01-17 23:08:00,76.5,51.0,27.05,NNE,29,7.6,8.3,32,0.00,,---,0.00,VWS V14.01,2013-01-18 05:08:00,
2013-01-17 23:13:00,76.5,51.0,27.05,SE,129,7.6,8.1,32,0.00,,---,0.00,VWS V14.01,2013-01-18 05:13:00,
2013-01-17 23:18:00,76.5,51.0,27.05,ENE,67,10.5,10.5,32,0.00,,---,0.00,VWS V14.01,2013-01-18 05:18:00,
2013-01-17 23:23:00,76.5,51.0,27.05,SE,146,8.3,12.8,32,0.00,,---,0.00,VWS V14.01,2013-01-18 05:23:00,
2013-01-17 23:28:00,76.5,51.0,27.05,SE,131,5.4,10.1,32,0.00,,---,0.00,VWS V14.01,2013-01-18 05:28:00,
2013-01-17 23:33:00,76.5,51.0,27.05,ENE,71,7.6,7.6,32,0.00,,---,0.00,VWS V14.01,2013-01-18 05:33:00,
2013-01-17 23:38:00,76.5,51.0,27.05,ESE,120,4.9,11.9,32,0.00,,---,0.00,VWS V14.01,2013-01-18 05:38:00,
2013-01-17 23:43:00,76.5,51.0,27.05,SE,144,3.6,8.1,32,0.00,,---,0.00,VWS V14.01,2013-01-18 05:43:00,
2013-01-17 23:48:00,76.5,51.0,27.05,SE,132,7.6,11.0,32,0.00,,---,0.00,VWS V14.01,2013-01-18 05:48:00,
2013-01-17 23:53:00,76.5,51.0,27.05,East,100,8.7,13.6,32,0.00,,---,0.00,VWS V14.01,2013-01-18 05:53:00,
2013-01-17 23:58:00,76.5,51.0,27.05,ESE,122,12.8,13.2,32,0.00,,---,0.00,VWS V14.01,2013-01-18 05:58:00,